This demonstration page uses our WeatherBlox Daily Observations layout. Learn more.

Left ArrowRight Arrow

Hourly Observations for January 28, 2022

Temp ( °F °C ) Dew Point ( °F °C ) Humidity (%) Winds ( mph kmh ) Pressure ( in mb ) Visibility ( mi km ) Precip ( " mm )
12:15 am 00:15 Cloudy 29 -1.8 23 -5.2 78 78 WNW 7 11 30.53 1034 10 16 0.00 0.00
12:35 am 00:35 Cloudy 29 -1.8 23 -5.1 78 78 WNW 6 9 30.53 1034 10 16 0.00 0.00
12:55 am 00:55 Cloudy 28 -2 23 -5.2 79 79 NW 6 9 30.53 1034 10 16 0.00 0.00
1:15 am 01:15 Cloudy 28 -2.2 23 -5.2 80 80 NNW 5 7 30.52 1034 10 16 0.00 0.00
1:35 am 01:35 Cloudy 27 -2.6 22 -5.4 81 81 NNW 5 7 30.52 1034 10 16 0.00 0.00
1:55 am 01:55 Mostly Cloudy 25 -4 21 -6.3 84 84 NW 7 11 30.54 1034 10 16 0.00 0.00
2:15 am 02:15 Partly Cloudy 24 -4.7 20 -6.8 85 85 NW 7 11 30.54 1034 10 16 0.00 0.00
2:35 am 02:35 Partly Cloudy 22 -5.5 19 -7.4 87 87 WNW 7 11 30.54 1034 10 16 0.00 0.00
2:55 am 02:55 Cloudy 19 -7.1 16 -8.8 88 88 NW 5 7 30.56 1035 10 16 0.00 0.00
3:15 am 03:15 Mostly Cloudy 19 -7 17 -8.4 90 90 WNW 5 7 30.55 1035 10 16 0.00 0.00
3:35 am 03:35 Partly Cloudy 16 -8.9 14 -10 92 92 NW 5 7 30.57 1035 10 16 0.00 0.00
3:55 am 03:55 Partly Cloudy 16 -8.7 15 -9.7 93 93 N 5 7 30.56 1035 10 16 0.00 0.00
4:15 am 04:15 Clear 17 -8.6 15 -9.7 92 92 NNW 3 6 30.56 1035 10 16 0.00 0.00
4:35 am 04:35 Clear 17 -8.2 15 -9.3 92 92 NNW 3 6 30.54 1034 10 16 0.00 0.00
4:55 am 04:55 Clear 17 -8.4 15 -9.7 90 90 NW 5 7 30.55 1034 10 16 0.00 0.00
5:15 am 05:15 Clear 14 -10.2 11 -11.7 89 89 Calm 30.56 1035 10 16 0.00 0.00
5:35 am 05:35 Clear 16 -9 14 -10.2 91 91 Calm 30.55 1035 10 16 0.00 0.00
5:55 am 05:55 Clear 15 -9.6 12 -10.9 90 90 Calm 30.57 1035 10 16 0.00 0.00
6:15 am 06:15 Clear with Mist and Fog 17 -8.2 15 -9.3 92 92 NW 3 6 30.55 1035 5 8 0.00 0.00
6:35 am 06:35 Clear with Mist and Fog 15 -9.2 13 -10.5 90 90 NW 3 6 30.56 1035 5 8 0.00 0.00
6:55 am 06:55 Clear with Mist and Fog 13 -10.7 10 -12.1 90 90 Calm 30.58 1036 3 4 0.00 0.00
7:15 am 07:15 Partly Cloudy 14 -10.1 11 -11.8 88 88 Calm 30.57 1035 10 16 0.00 0.00
7:35 am 07:35 Cloudy 15 -9.2 13 -10.5 90 90 W 5 7 30.56 1035 10 16 0.00 0.00
7:55 am 07:55 Cloudy 17 -8.2 15 -9.5 90 90 W 8 13 30.55 1035 10 16 0.00 0.00
8:15 am 08:15 Cloudy 18 -7.6 16 -8.8 91 91 WNW 8 13 30.55 1034 10 16 0.00 0.00
8:35 am 08:35 Cloudy 19 -7 17 -8.1 92 92 WNW 8 13 30.54 1034 10 16 0.00 0.00
8:55 am 08:55 Cloudy 23 -5.2 21 -6.1 93 93 NW 12 19 30.52 1034 10 16 0.00 0.00
9:15 am 09:15 Cloudy 24 -4.6 22 -5.7 92 92 WNW 13 20 30.53 1034 10 16 0.00 0.00
9:35 am 09:35 Cloudy 26 -3.3 19 -7 76 76 WNW 13 20 30.51 1033 10 16 0.00 0.00
9:55 am 09:55 Cloudy 28 -2.5 20 -6.9 72 72 WNW 14 22 30.51 1033 10 16 0.00 0.00
10:15 am 10:15 Partly Cloudy 29 -1.5 20 -6.8 68 68 WNW 14 22 30.50 1033 10 16 0.00 0.00
10:35 am 10:35 Sunny 31 -0.4 20 -6.6 63 63 NW 10 17 30.48 1032 10 16 0.00 0.00
10:55 am 10:55 Sunny 33 0.3 20 -6.4 61 61 NW 10 17 30.48 1032 10 16 0.00 0.00
11:15 am 11:15 Sunny 34 1.2 21 -6.3 58 58 WNW 10 17 30.46 1031 10 16 0.00 0.00
11:35 am 11:35 Sunny 36 2 21 -6.3 55 55 WNW 8 13 30.44 1031 10 16 0.00 0.00
11:55 am 11:55 Sunny 37 2.6 21 -6.2 53 53 NW 9 15 30.43 1031 10 16 0.00 0.00
12:15 pm 12:15 Sunny 38 3.4 21 -6.3 49 49 WNW 9 15 30.40 1030 10 16 0.00 0.00
12:35 pm 12:35 Sunny 40 4.2 20 -6.7 45 45 W 10 17 30.40 1029 10 16 0.00 0.00
12:55 pm 12:55 Sunny 41 5 20 -6.5 44 44 W 8 13 30.38 1029 10 16 0.00 0.00
1:15 pm 13:15 Sunny 43 6 19 -7.5 38 38 WNW 9 15 30.35 1028 10 16 0.00 0.00
1:35 pm 13:35 Sunny 44 6.4 19 -7.5 37 37 W 9 15 30.34 1027 10 16 0.00 0.00
1:55 pm 13:55 Sunny 45 7.4 18 -7.7 34 34 W 6 9 30.31 1026 10 16 0.00 0.00
2:15 pm 14:15 Sunny 46 7.9 16 -8.8 30 30 WNW 10 17 30.29 1026 10 16 0.00 0.00
2:35 pm 14:35 Sunny 47 8.3 15 -9.2 28 28 W 10 17 30.28 1025 10 16 0.00 0.00
2:55 pm 14:55 Sunny 47 8.5 14 -10.1 26 26 WNW 9 15 30.27 1025 10 16 0.00 0.00
3:15 pm 15:15 Sunny 48 8.9 15 -9.6 26 26 W 12 19 30.26 1025 10 16 0.00 0.00
3:35 pm 15:35 Sunny 48 8.8 15 -9.2 27 27 W 10 17 30.25 1024 10 16 0.00 0.00
3:55 pm 15:55 Sunny 49 9.2 15 -9.7 25 25 WNW 13 20 30.25 1024 10 16 0.00 0.00
4:15 pm 16:15 Sunny 49 9.5 14 -10 24 24 W 14 22 30.24 1024 10 16 0.00 0.00
4:35 pm 16:35 Sunny 49 9.3 14 -10 25 25 W 13 20 30.24 1024 10 16 0.00 0.00
4:55 pm 16:55 Sunny 48 9 14 -10 25 25 WSW 10 17 30.23 1024 10 16 0.00 0.00
5:15 pm 17:15 Sunny 47 8.1 14 -10.1 27 27 W 8 13 30.23 1024 10 16 0.00 0.00
5:35 pm 17:35 Sunny 42 5.8 14 -10.2 31 31 W 8 13 30.24 1024 10 16 0.00 0.00
5:55 pm 17:55 Clear 38 3.3 13 -10.6 36 36 W 8 13 30.27 1025 10 16 0.00 0.00
6:15 pm 18:15 Clear 36 2.1 12 -11 38 38 WSW 7 11 30.28 1025 10 16 0.00 0.00
6:35 pm 18:35 Clear 33 0.4 11 -11.5 41 41 SW 8 13 30.29 1026 10 16 0.00 0.00
6:55 pm 18:55 Clear 33 0.4 11 -11.5 41 41 WSW 6 9 30.28 1026 10 16 0.00 0.00
7:15 pm 19:15 Clear 32 -0.1 12 -11.1 44 44 W 6 9 30.29 1026 10 16 0.00 0.00
7:35 pm 19:35 Clear 28 -2 11 -11.6 48 48 W 9 15 30.31 1026 10 16 0.00 0.00
7:55 pm 19:55 Clear 23 -5.2 8 -13.1 54 54 W 6 9 30.34 1027 10 16 0.00 0.00
8:15 pm 20:15 Clear 21 -6 9 -12.9 59 59 W 7 11 30.35 1028 10 16 0.00 0.00
8:35 pm 20:35 Clear 22 -5.3 11 -11.9 60 60 W 9 15 30.33 1027 10 16 0.00 0.00
8:55 pm 20:55 Clear 24 -4.3 11 -11.4 58 58 W 9 15 30.32 1027 10 16 0.00 0.00
9:15 pm 21:15 Clear 25 -4 12 -11.1 58 58 W 7 11 30.31 1026 10 16 0.00 0.00
9:35 pm 21:35 Clear 26 -3.6 12 -11.1 56 56 W 7 11 30.30 1026 10 16 0.00 0.00
9:55 pm 21:55 Clear 25 -4 12 -11.1 58 58 W 7 11 30.31 1026 10 16 0.00 0.00
10:15 pm 22:15 Clear 21 -5.9 11 -11.5 65 65 WNW 7 11 30.33 1027 10 16 0.00 0.00
10:35 pm 22:35 Clear 21 -6.3 12 -11.2 69 69 WNW 6 9 30.32 1027 10 16 0.00 0.00
10:55 pm 22:55 Clear 19 -7.4 10 -12.3 68 68 WNW 6 9 30.33 1027 10 16 0.00 0.00
11:15 pm 23:15 Clear 19 -7.3 11 -11.9 70 70 NW 6 9 30.32 1027 10 16 0.00 0.00
11:35 pm 23:35 Clear 19 -7.3 10 -12.4 67 67 NW 5 7 30.32 1027 10 16 0.00 0.00
11:55 pm 23:55 Clear 19 -7.3 10 -12.1 69 69 WNW 5 7 30.31 1026 10 16 0.00 0.00

Powered by AerisWeather